Hasvik Airport


Codes: ENHK/HAA
Name: Hasvik Airport
City: Hasvik
Country: Norway
Elevation: 21 ft.
Wikipedia:

Photos at Hasvik Airport


   Photos courtesy of SpottingLog. You can add your own sightings and photos by signing up for a free trial today.



No photos found.

Weather at Hasvik Airport


Time (UTC)DescriptionTempratureWindCloud coverageVisibilityPressureHumidity
17-Jun-2024 06:00Few Clouds17°C13 mph, E20%10000m1012hPa63%
17-Jun-2024 09:00Scattered Clouds16°C13 mph, E42%10000m1012hPa65%
17-Jun-2024 12:00Light Rain14°C9 mph, SE67%10000m1013hPa73%
17-Jun-2024 15:00Light Rain13°C2 mph, N86%10000m1013hPa75%
17-Jun-2024 18:00Broken Clouds13°C2 mph, NW54%10000m1013hPa74%
17-Jun-2024 21:00Scattered Clouds13°C4 mph, E47%10000m1013hPa73%
18-Jun-2024 00:00Broken Clouds14°C7 mph, E73%10000m1011hPa73%
18-Jun-2024 03:00Overcast Clouds13°C11 mph, E100%10000m1010hPa75%
18-Jun-2024 06:00Overcast Clouds14°C11 mph, E97%10000m1009hPa72%
18-Jun-2024 09:00Overcast Clouds14°C13 mph, E100%10000m1008hPa76%
18-Jun-2024 12:00Overcast Clouds15°C11 mph, E99%10000m1007hPa70%
18-Jun-2024 15:00Light Rain15°C9 mph, SE100%10000m1005hPa73%
18-Jun-2024 18:00Light Rain13°C4 mph, SE100%10000m1003hPa88%
18-Jun-2024 21:00Light Rain13°C11 mph, SE100%10000m1002hPa86%
19-Jun-2024 00:00Light Rain13°C11 mph, SE100%10000m1001hPa87%
19-Jun-2024 03:00Light Rain12°C9 mph, E100%10000m1001hPa91%
19-Jun-2024 06:00Light Rain12°C9 mph, SE100%10000m1000hPa87%
19-Jun-2024 09:00Light Rain13°C11 mph, SE100%10000m1000hPa82%
19-Jun-2024 12:00Overcast Clouds12°C2 mph, S98%10000m1000hPa85%
19-Jun-2024 15:00Light Rain10°C4 mph, N100%0m1001hPa94%
19-Jun-2024 18:00Light Rain10°C2 mph, N100%0m1001hPa94%
19-Jun-2024 21:00Light Rain12°C7 mph, E100%10000m1001hPa91%
20-Jun-2024 00:00Light Rain11°C9 mph, NE100%10000m1000hPa86%
20-Jun-2024 03:00Light Rain10°C11 mph, NE100%10000m1000hPa78%
20-Jun-2024 06:00Light Rain9°C11 mph, NE100%10000m1001hPa79%
20-Jun-2024 09:00Light Rain9°C11 mph, NE100%10000m1002hPa79%
20-Jun-2024 12:00Light Rain9°C11 mph, NE100%10000m1003hPa83%
20-Jun-2024 15:00Light Rain9°C9 mph, E100%10000m1004hPa83%
20-Jun-2024 18:00Light Rain9°C9 mph, E100%10000m1006hPa83%
20-Jun-2024 21:00Overcast Clouds9°C7 mph, E100%10000m1007hPa78%
21-Jun-2024 00:00Overcast Clouds9°C4 mph, E100%10000m1008hPa77%
21-Jun-2024 03:00Overcast Clouds9°C0 mph, E100%10000m1009hPa76%
21-Jun-2024 06:00Overcast Clouds9°C7 mph, W100%10000m1010hPa87%
21-Jun-2024 09:00Overcast Clouds9°C7 mph, W98%10000m1011hPa83%
21-Jun-2024 12:00Light Rain9°C11 mph, W99%10000m1012hPa91%
21-Jun-2024 15:00Light Rain9°C9 mph, W100%10000m1013hPa90%
21-Jun-2024 18:00Overcast Clouds9°C7 mph, W100%10000m1014hPa89%
21-Jun-2024 21:00Overcast Clouds9°C7 mph, W100%10000m1013hPa87%
22-Jun-2024 00:00Overcast Clouds9°C7 mph, W100%10000m1014hPa88%
22-Jun-2024 03:00Light Rain9°C11 mph, W100%10000m1015hPa91%